Time,TemperatureF,DewpointF,PressureIn,WindDirection,WindDirectionDegrees,WindSpeedMPH,WindSpeedGustMPH,Humidity,HourlyPrecipIn,Conditions,Clouds,dailyrainin,SoftwareType,DateUTC
2013-06-12 00:09:00,80.0,71.0,29.91,SSE,165,9.0,14.0,74,0.00,,,0.00,weatherlink.com 1.10,2013-06-12 05:09:00,
2013-06-12 00:24:00,79.7,71.0,29.91,South,173,6.0,12.0,75,0.00,,,0.00,weatherlink.com 1.10,2013-06-12 05:24:00,
2013-06-12 00:39:00,79.5,71.0,29.91,South,184,6.0,14.0,75,0.00,,,0.00,weatherlink.com 1.10,2013-06-12 05:39:00,
2013-06-12 00:54:00,79.4,71.0,29.90,South,173,11.0,15.0,75,0.00,,,0.00,weatherlink.com 1.10,2013-06-12 05:54:00,
2013-06-12 01:09:00,79.1,71.0,29.90,South,189,9.0,13.0,76,0.00,,,0.00,weatherlink.com 1.10,2013-06-12 06:09:00,
2013-06-12 01:24:00,78.7,71.0,29.90,South,186,9.0,12.0,77,0.00,,,0.00,weatherlink.com 1.10,2013-06-12 06:24:00,
2013-06-12 01:39:00,78.2,71.0,29.90,South,173,5.0,10.0,78,0.00,,,0.00,weatherlink.com 1.10,2013-06-12 06:39:00,
2013-06-12 01:54:00,77.9,71.0,29.89,SSE,167,7.0,11.0,79,0.00,,,0.00,weatherlink.com 1.10,2013-06-12 06:54:00,
2013-06-12 02:09:00,77.6,71.0,29.89,SSE,161,6.0,12.0,80,0.00,,,0.00,weatherlink.com 1.10,2013-06-12 07:09:00,
2013-06-12 02:24:00,77.6,71.0,29.89,South,172,7.0,14.0,80,0.00,,,0.00,weatherlink.com 1.10,2013-06-12 07:24:00,
2013-06-12 02:39:00,77.5,71.0,29.88,SSE,150,10.0,12.0,81,0.00,,,0.00,weatherlink.com 1.10,2013-06-12 07:39:00,
2013-06-12 02:54:00,77.2,71.0,29.88,South,190,6.0,13.0,82,0.00,,,0.00,weatherlink.com 1.10,2013-06-12 07:54:00,
2013-06-12 03:09:00,76.9,71.0,29.88,South,180,8.0,14.0,83,0.00,,,0.00,weatherlink.com 1.10,2013-06-12 08:09:00,
2013-06-12 03:24:00,76.6,72.0,29.88,South,184,6.0,13.0,84,0.00,,,0.00,weatherlink.com 1.10,2013-06-12 08:24:00,
2013-06-12 03:39:00,76.7,72.0,29.88,South,184,12.0,15.0,84,0.00,,,0.00,weatherlink.com 1.10,2013-06-12 08:39:00,
2013-06-12 03:54:00,76.9,71.0,29.88,SSW,194,12.0,16.0,83,0.00,,,0.00,weatherlink.com 1.10,2013-06-12 08:54:00,
2013-06-12 04:09:00,76.6,72.0,29.88,South,177,9.0,15.0,84,0.00,,,0.00,weatherlink.com 1.10,2013-06-12 09:09:00,
2013-06-12 04:24:00,76.3,72.0,29.88,South,177,10.0,14.0,85,0.00,,,0.00,weatherlink.com 1.10,2013-06-12 09:24:00,
2013-06-12 04:39:00,76.2,71.0,29.89,South,178,6.0,13.0,85,0.00,,,0.00,weatherlink.com 1.10,2013-06-12 09:39:00,
2013-06-12 04:54:00,76.2,71.0,29.90,South,186,7.0,14.0,85,0.00,,,0.00,weatherlink.com 1.10,2013-06-12 09:54:00,
2013-06-12 05:09:00,76.0,71.0,29.91,SSW,193,4.0,8.0,85,0.00,,,0.00,weatherlink.com 1.10,2013-06-12 10:09:00,
2013-06-12 05:24:00,75.7,71.0,29.91,SSW,192,2.0,8.0,86,0.00,,,0.00,weatherlink.com 1.10,2013-06-12 10:24:00,
2013-06-12 05:39:00,75.5,71.0,29.91,South,186,6.0,8.0,86,0.00,,,0.00,weatherlink.com 1.10,2013-06-12 10:39:00,
2013-06-12 05:54:00,75.5,71.0,29.92,SSW,196,5.0,7.0,86,0.00,,,0.00,weatherlink.com 1.10,2013-06-12 10:54:00,
2013-06-12 06:09:00,75.4,71.0,29.93,SSW,195,2.0,7.0,86,0.00,,,0.00,weatherlink.com 1.10,2013-06-12 11:09:00,
2013-06-12 06:24:00,75.2,71.0,29.93,South,177,3.0,6.0,86,0.00,,,0.00,weatherlink.com 1.10,2013-06-12 11:24:00,
2013-06-12 06:39:00,75.4,71.0,29.94,South,190,6.0,8.0,86,0.00,,,0.00,weatherlink.com 1.10,2013-06-12 11:39:00,
2013-06-12 06:54:00,75.9,71.0,29.94,South,181,8.0,11.0,85,0.00,,,0.00,weatherlink.com 1.10,2013-06-12 11:54:00,
2013-06-12 07:09:00,77.1,71.0,29.94,South,190,7.0,16.0,82,0.00,,,0.00,weatherlink.com 1.10,2013-06-12 12:09:00,
2013-06-12 07:24:00,77.8,72.0,29.94,SSW,213,7.0,18.0,81,0.00,,,0.00,weatherlink.com 1.10,2013-06-12 12:24:00,
2013-06-12 07:39:00,78.5,72.0,29.94,SSW,196,8.0,16.0,79,0.00,,,0.00,weatherlink.com 1.10,2013-06-12 12:39:00,
2013-06-12 07:54:00,79.0,71.0,29.94,South,178,4.0,17.0,77,0.00,,,0.00,weatherlink.com 1.10,2013-06-12 12:54:00,
2013-06-12 08:09:00,79.6,71.0,29.95,SSW,206,11.0,22.0,76,0.00,,,0.00,weatherlink.com 1.10,2013-06-12 13:09:00,
2013-06-12 08:24:00,80.4,71.0,29.94,SSW,198,17.0,19.0,74,0.00,,,0.00,weatherlink.com 1.10,2013-06-12 13:24:00,
2013-06-12 08:39:00,81.2,72.0,29.95,SW,231,13.0,18.0,73,0.00,,,0.00,weatherlink.com 1.10,2013-06-12 13:39:00,
2013-06-12 08:54:00,82.2,71.0,29.95,South,189,17.0,21.0,69,0.00,,,0.00,weatherlink.com 1.10,2013-06-12 13:54:00,
2013-06-12 09:09:00,82.9,71.0,29.95,WSW,246,9.0,27.0,67,0.00,,,0.00,weatherlink.com 1.10,2013-06-12 14:09:00,
2013-06-12 09:24:00,83.4,69.0,29.95,SW,223,21.0,30.0,62,0.00,,,0.00,weatherlink.com 1.10,2013-06-12 14:24:00,
2013-06-12 09:39:00,83.5,69.0,29.95,SSW,207,12.0,27.0,62,0.00,,,0.00,weatherlink.com 1.10,2013-06-12 14:39:00,
2013-06-12 09:54:00,84.0,70.0,29.94,SSW,213,11.0,23.0,63,0.00,,,0.00,weatherlink.com 1.10,2013-06-12 14:54:00,
2013-06-12 10:09:00,84.5,70.0,29.95,South,184,19.0,25.0,62,0.00,,,0.00,weatherlink.com 1.10,2013-06-12 15:09:00,
2013-06-12 10:24:00,85.2,70.0,29.94,SSW,199,15.0,22.0,60,0.00,,,0.00,weatherlink.com 1.10,2013-06-12 15:24:00,
2013-06-12 10:39:00,85.6,70.0,29.93,SSW,202,21.0,24.0,59,0.00,,,0.00,weatherlink.com 1.10,2013-06-12 15:39:00,
2013-06-12 10:54:00,86.4,70.0,29.93,SW,218,17.0,25.0,58,0.00,,,0.00,weatherlink.com 1.10,2013-06-12 15:54:00,
2013-06-12 11:09:00,87.1,70.0,29.92,SSW,213,12.0,24.0,57,0.00,,,0.00,weatherlink.com 1.10,2013-06-12 16:09:00,
2013-06-12 11:24:00,87.4,70.0,29.93,South,179,17.0,24.0,57,0.00,,,0.00,weatherlink.com 1.10,2013-06-12 16:24:00,
2013-06-12 11:39:00,88.0,70.0,29.93,SSW,194,21.0,23.0,56,0.00,,,0.00,weatherlink.com 1.10,2013-06-12 16:39:00,
2013-06-12 11:54:00,88.4,70.0,29.92,South,190,19.0,29.0,55,0.00,,,0.00,weatherlink.com 1.10,2013-06-12 16:54:00,
2013-06-12 12:09:00,88.7,70.0,29.91,SSW,209,19.0,26.0,54,0.00,,,0.00,weatherlink.com 1.10,2013-06-12 17:09:00,
2013-06-12 12:24:00,89.2,70.0,29.92,South,179,19.0,28.0,54,0.00,,,0.00,weatherlink.com 1.10,2013-06-12 17:24:00,
2013-06-12 12:39:00,89.3,70.0,29.91,SSW,195,20.0,26.0,54,0.00,,,0.00,weatherlink.com 1.10,2013-06-12 17:39:00,
2013-06-12 12:54:00,89.8,70.0,29.91,SW,217,21.0,26.0,53,0.00,,,0.00,weatherlink.com 1.10,2013-06-12 17:54:00,
2013-06-12 13:10:00,90.0,71.0,29.91,WSW,238,17.0,26.0,53,0.00,,,0.00,weatherlink.com 1.10,2013-06-12 18:10:00,
2013-06-12 13:25:00,90.7,71.0,29.91,SSW,192,16.0,25.0,53,0.00,,,0.00,weatherlink.com 1.10,2013-06-12 18:25:00,
2013-06-12 13:40:00,91.2,72.0,29.90,SSW,213,20.0,29.0,53,0.00,,,0.00,weatherlink.com 1.10,2013-06-12 18:40:00,
2013-06-12 13:55:00,91.1,71.0,29.91,South,186,14.0,24.0,52,0.00,,,0.00,weatherlink.com 1.10,2013-06-12 18:55:00,
2013-06-12 14:10:00,91.7,71.0,29.90,SSE,168,10.0,27.0,51,0.00,,,0.00,weatherlink.com 1.10,2013-06-12 19:10:00,
2013-06-12 14:25:00,91.7,72.0,29.89,South,175,12.0,22.0,52,0.00,,,0.00,weatherlink.com 1.10,2013-06-12 19:25:00,
2013-06-12 14:40:00,91.7,72.0,29.90,SW,218,18.0,21.0,52,0.00,,,0.00,weatherlink.com 1.10,2013-06-12 19:40:00,
2013-06-12 14:55:00,92.5,72.0,29.89,SSW,198,14.0,25.0,51,0.00,,,0.00,weatherlink.com 1.10,2013-06-12 19:55:00,
2013-06-12 15:10:00,92.3,71.0,29.89,South,176,18.0,25.0,50,0.00,,,0.00,weatherlink.com 1.10,2013-06-12 20:10:00,
2013-06-12 15:25:00,92.3,71.0,29.89,SSW,208,11.0,24.0,50,0.00,,,0.00,weatherlink.com 1.10,2013-06-12 20:25:00,
2013-06-12 15:40:00,92.8,72.0,29.89,SSW,208,17.0,24.0,50,0.00,,,0.00,weatherlink.com 1.10,2013-06-12 20:40:00,
2013-06-12 15:55:00,92.6,72.0,29.89,SW,236,9.0,23.0,51,0.00,,,0.00,weatherlink.com 1.10,2013-06-12 20:55:00,
2013-06-12 16:10:00,92.7,72.0,29.89,SW,219,13.0,23.0,51,0.00,,,0.00,weatherlink.com 1.10,2013-06-12 21:10:00,
2013-06-12 16:25:00,92.4,72.0,29.89,South,184,21.0,25.0,51,0.00,,,0.00,weatherlink.com 1.10,2013-06-12 21:25:00,
2013-06-12 16:40:00,92.6,72.0,29.88,SW,229,12.0,26.0,51,0.00,,,0.00,weatherlink.com 1.10,2013-06-12 21:40:00,
2013-06-12 16:55:00,92.4,72.0,29.88,SW,236,17.0,25.0,52,0.00,,,0.00,weatherlink.com 1.10,2013-06-12 21:55:00,
2013-06-12 17:10:00,92.5,73.0,29.88,SE,144,7.0,20.0,53,0.00,,,0.00,weatherlink.com 1.10,2013-06-12 22:10:00,
2013-06-12 17:25:00,92.5,72.0,29.88,SSW,213,11.0,18.0,52,0.00,,,0.00,weatherlink.com 1.10,2013-06-12 22:25:00,
2013-06-12 17:40:00,92.3,72.0,29.88,SSW,202,11.0,20.0,52,0.00,,,0.00,weatherlink.com 1.10,2013-06-12 22:40:00,
2013-06-12 17:55:00,92.1,73.0,29.87,SSW,198,7.0,20.0,54,0.00,,,0.00,weatherlink.com 1.10,2013-06-12 22:55:00,
2013-06-12 18:10:00,91.9,72.0,29.87,SSW,206,7.0,18.0,52,0.00,,,0.00,weatherlink.com 1.10,2013-06-12 23:10:00,
2013-06-12 18:25:00,91.8,73.0,29.87,SW,227,7.0,19.0,54,0.00,,,0.00,weatherlink.com 1.10,2013-06-12 23:25:00,
2013-06-12 18:40:00,91.5,73.0,29.87,SSW,204,13.0,15.0,54,0.00,,,0.00,weatherlink.com 1.10,2013-06-12 23:40:00,
2013-06-12 18:55:00,91.1,73.0,29.87,South,190,7.0,12.0,56,0.00,,,0.00,weatherlink.com 1.10,2013-06-12 23:55:00,
2013-06-12 19:10:00,90.6,73.0,29.87,SSW,192,8.0,17.0,56,0.00,,,0.00,weatherlink.com 1.10,2013-06-13 00:10:00,
2013-06-12 19:25:00,90.1,73.0,29.88,SSW,192,9.0,15.0,58,0.00,,,0.00,weatherlink.com 1.10,2013-06-13 00:25:00,
2013-06-12 19:40:00,89.6,73.0,29.88,SSW,196,7.0,13.0,58,0.00,,,0.00,weatherlink.com 1.10,2013-06-13 00:40:00,
2013-06-12 19:55:00,88.8,74.0,29.88,South,187,4.0,11.0,62,0.00,,,0.00,weatherlink.com 1.10,2013-06-13 00:55:00,
2013-06-12 20:10:00,87.8,75.0,29.88,SSW,194,7.0,12.0,65,0.00,,,0.00,weatherlink.com 1.10,2013-06-13 01:10:00,
2013-06-12 20:25:00,86.9,74.0,29.89,South,180,7.0,9.0,66,0.00,,,0.00,weatherlink.com 1.10,2013-06-13 01:25:00,
2013-06-12 20:40:00,86.1,74.0,29.89,SSW,198,5.0,8.0,68,0.00,,,0.00,weatherlink.com 1.10,2013-06-13 01:40:00,
2013-06-12 20:55:00,85.2,74.0,29.89,South,176,3.0,7.0,70,0.00,,,0.00,weatherlink.com 1.10,2013-06-13 01:55:00,
2013-06-12 21:10:00,84.5,74.0,29.89,South,187,5.0,9.0,71,0.00,,,0.00,weatherlink.com 1.10,2013-06-13 02:10:00,
2013-06-12 21:27:00,84.3,74.0,29.89,South,191,4.0,11.0,72,0.00,,,0.00,weatherlink.com 1.10,2013-06-13 02:27:00,
2013-06-12 21:40:00,83.9,74.0,29.89,South,188,7.0,10.0,73,0.00,,,0.00,weatherlink.com 1.10,2013-06-13 02:40:00,
2013-06-12 21:55:00,83.7,74.0,29.90,SSW,193,6.0,12.0,73,0.00,,,0.00,weatherlink.com 1.10,2013-06-13 02:55:00,
2013-06-12 22:10:00,83.6,74.0,29.90,South,186,11.0,11.0,72,0.00,,,0.00,weatherlink.com 1.10,2013-06-13 03:10:00,
2013-06-12 22:25:00,83.4,74.0,29.90,SSW,205,7.0,12.0,72,0.00,,,0.00,weatherlink.com 1.10,2013-06-13 03:25:00,
2013-06-12 22:40:00,83.2,73.0,29.91,SSW,205,7.0,9.0,71,0.00,,,0.00,weatherlink.com 1.10,2013-06-13 03:40:00,
2013-06-12 22:55:00,83.1,73.0,29.91,SSW,201,8.0,11.0,71,0.00,,,0.00,weatherlink.com 1.10,2013-06-13 03:55:00,
2013-06-12 23:11:00,82.8,73.0,29.91,SSW,192,6.0,12.0,71,0.00,,,0.00,weatherlink.com 1.10,2013-06-13 04:11:00,
2013-06-12 23:26:00,82.8,73.0,29.91,SSW,199,7.0,16.0,71,0.00,,,0.00,weatherlink.com 1.10,2013-06-13 04:26:00,
2013-06-12 23:41:00,82.4,73.0,29.91,SSW,192,6.0,11.0,72,0.00,,,0.00,weatherlink.com 1.10,2013-06-13 04:41:00,
2013-06-12 23:56:00,82.1,72.0,29.91,SSW,205,7.0,11.0,72,0.00,,,0.00,weatherlink.com 1.10,2013-06-13 04:56:00,